QPF
0.01 0.01 0.02 0.03 0.05 0.06 0.09 0.12 0.15 0.17 0.20 0.23 0.26 0.30 0.24 0.19 0.21 0.24 0.25 0.31 0.36 0.34 0.28 0.22 0.20 0.22 0.22 0.22 0.20 0.20 0.19 0.17 0.14 0.14 0.12 0.10 0.07 0.08 0.08 0.08 0.09 0.10 0.09
0.02 0.02 0.02 0.02 0.02 0.03 0.05 0.09 0.12 0.15 0.14 0.15 0.18 0.20 0.20 0.19 0.17 0.19 0.20 0.22 0.24 0.23 0.20 0.19 0.19 0.18 0.18 0.21 0.20 0.18 0.18 0.15 0.12 0.13 0.16 0.15 0.14 0.13 0.11 0.10 0.09 0.06 0.05
0.01 0.01 0.02 0.02 0.02 0.02 0.04 0.06 0.08 0.09 0.11 0.13 0.15 0.16 0.15 0.14 0.13 0.15 0.16 0.17 0.18 0.20 0.22 0.20 0.19 0.17 0.17 0.17 0.16 0.12 0.13 0.15 0.13 0.10 0.11 0.15 0.14 0.13 0.11 0.08 0.05 0.04 0.03
0.01 0.01 0.02 0.02 0.02 0.02 0.03 0.05 0.06 0.08 0.09 0.12 0.12 0.13 0.13 0.13 0.13 0.15 0.12 0.11 0.10 0.12 0.14 0.16 0.17 0.19 0.17 0.15 0.15 0.12 0.10 0.11 0.10 0.08 0.06 0.06 0.06 0.08 0.08 0.06 0.03 0.02 0.02
0.02 0.02 0.03 0.03 0.03 0.03 0.03 0.03 0.05 0.07 0.09 0.10 0.12 0.16 0.15 0.14 0.14 0.12 0.10 0.08 0.08 0.09 0.11 0.13 0.13 0.14 0.15 0.14 0.14 0.12 0.09 0.08 0.06 0.05 0.04 0.03 0.02 0.03 0.04 0.04 0.04 0.03 0.03
0.03 0.02 0.03 0.03 0.03 0.03 0.03 0.04 0.04 0.05 0.07 0.09 0.10 0.12 0.14 0.14 0.14 0.13 0.13 0.12 0.11 0.12 0.15 0.15 0.15 0.15 0.14 0.12 0.12 0.10 0.09 0.08 0.06 0.04 0.03 0.03 0.02 0.02 0.03 0.04 0.03 0.02 0.02
0.03 0.02 0.02 0.02 0.02 0.03 0.04 0.04 0.03 0.04 0.06 0.07 0.09 0.11 0.11 0.10 0.11 0.12 0.13 0.13 0.12 0.12 0.12 0.12 0.12 0.12 0.11 0.09 0.08 0.06 0.04 0.04 0.03 0.02 0.01 0.01 0.01 0.00 0.01 0.01 0.01 0.01 0.01
0.04 0.02 0.02 0.02 0.02 0.02 0.03 0.03 0.03 0.04 0.05 0.05 0.06 0.08 0.08 0.06 0.06 0.07 0.07 0.08 0.08 0.08 0.08 0.08 0.07 0.06 0.06 0.05 0.04 0.03 0.02 0.02 0.01 0.01 0.01 0.00 0.00 0.00 0.00 0.00 0.00 0.00 0.00
0.03 0.02 0.02 0.01 0.02 0.02 0.02 0.03 0.03 0.03 0.03 0.04 0.05 0.06 0.06 0.05 0.05 0.04 0.05 0.06 0.07 0.07 0.07 0.06 0.05 0.05 0.04 0.03 0.02 0.02 0.01 0.01 0.01 0.01 0.01 0.01 0.00 0.00 0.00 0.00 0.00 0.00 0.00
0.03 0.02 0.02 0.02 0.02 0.02 0.03 0.04 0.04 0.04 0.03 0.03 0.04 0.05 0.05 0.04 0.03 0.03 0.03 0.04 0.04 0.05 0.05 0.04 0.04 0.03 0.03 0.02 0.01 0.01 0.01 0.00 0.00 0.00 0.00 0.00 0.00 0.00 0.00 0.00 0.00 0.00 0.00
0.02 0.02 0.02 0.03 0.04 0.04 0.04 0.04 0.04 0.05 0.05 0.04 0.04 0.04 0.04 0.04 0.03 0.03 0.03 0.02 0.02 0.02 0.02 0.02 0.02 0.02 0.02 0.01 0.01 0.01 0.00 0.00 0.00 0.00 0.00 0.00 0.00 0.00 0.00 0.00 0.00 0.00 0.00
0.05 0.04 0.03 0.03 0.05 0.07 0.06 0.06 0.05 0.05 0.06 0.05 0.04 0.03 0.03 0.03 0.02 0.02 0.02 0.02 0.02 0.01 0.01 0.01 0.00 0.00 0.00 0.00 0.00 0.00 0.00 0.00 0.00 0.00 0.00 0.00 0.00 0.00 0.00 0.00 0.00 0.00 0.00
0.06 0.07 0.07 0.05 0.03 0.05 0.07 0.08 0.08 0.07 0.07 0.07 0.06 0.04 0.03 0.03 0.02 0.02 0.02 0.02 0.02 0.01 0.01 0.00 0.00 0.00 0.00 0.00 0.00 0.00 0.00 0.00 0.00 0.00 0.00 0.00 0.00 0.00 0.00 0.00 0.00 0.00 0.00
0.03 0.05 0.05 0.05 0.05 0.04 0.05 0.07 0.08 0.08 0.08 0.06 0.05 0.04 0.04 0.03 0.03 0.02 0.02 0.02 0.02 0.01 0.01 0.00 0.00 0.00 0.00 0.00 0.00 0.00 0.00 0.00 0.00 0.00 0.00 0.00 0.00 0.00 0.00 0.00 0.00 0.00 0.01
0.03 0.04 0.04 0.04 0.05 0.04 0.04 0.04 0.05 0.05 0.05 0.05 0.04 0.04 0.05 0.05 0.04 0.04 0.04 0.03 0.02 0.01 0.01 0.01 0.01 0.01 0.00 0.00 0.00 0.00 0.00 0.00 0.00 0.00 0.00 0.00 0.00 0.00 0.00 0.00 0.00 0.00 0.00
0.04 0.06 0.05 0.05 0.05 0.04 0.05 0.05 0.04 0.03 0.02 0.03 0.03 0.02 0.03 0.04 0.04 0.04 0.04 0.03 0.03 0.02 0.02 0.01 0.01 0.00 0.00 0.00 0.00 0.00 0.00 0.00 0.01 0.01 0.01 0.00 0.00 0.00 0.00 0.00 0.00 0.00 0.00
0.07 0.08 0.06 0.05 0.05 0.05 0.05 0.04 0.04 0.04 0.04 0.03 0.03 0.03 0.02 0.02 0.03 0.02 0.03 0.03 0.03 0.03 0.02 0.01 0.01 0.00 0.00 0.00 0.00 0.00 0.00 0.01 0.01 0.01 0.01 0.01 0.00 0.00 0.00 0.00 0.00 0.01 0.00
0.10 0.09 0.08 0.06 0.07 0.07 0.05 0.05 0.05 0.04 0.03 0.03 0.03 0.04 0.03 0.03 0.03 0.03 0.02 0.02 0.03 0.03 0.02 0.02 0.01 0.00 0.00 0.00 0.00 0.00 0.00 0.01 0.01 0.01 0.01 0.01 0.01 0.00 0.00 0.00 0.02 0.04 0.02
0.09 0.10 0.09 0.08 0.08 0.07 0.06 0.06 0.05 0.03 0.03 0.03 0.03 0.03 0.03 0.03 0.03 0.03 0.02 0.02 0.02 0.02 0.02 0.02 0.02 0.01 0.00 0.00 0.00 0.00 0.01 0.01 0.01 0.01 0.00 0.01 0.01 0.00 0.00 0.01 0.04 0.05 0.04
0.08 0.11 0.11 0.09 0.07 0.05 0.05 0.05 0.05 0.04 0.03 0.03 0.03 0.03 0.02 0.02 0.02 0.03 0.03 0.03 0.03 0.03 0.02 0.02 0.02 0.01 0.01 0.00 0.00 0.00 0.01 0.02 0.03 0.03 0.02 0.00 0.00 0.00 0.00 0.01 0.02 0.02 0.02
0.07 0.09 0.10 0.10 0.08 0.05 0.05 0.05 0.05 0.04 0.03 0.02 0.02 0.02 0.02 0.02 0.02 0.02 0.03 0.03 0.03 0.03 0.02 0.02 0.02 0.01 0.00 0.00 0.00 0.00 0.00 0.01 0.02 0.03 0.02 0.01 0.00 0.00 0.00 0.00 0.00 0.00 0.00
0.08 0.09 0.10 0.09 0.09 0.08 0.07 0.06 0.05 0.04 0.03 0.03 0.02 0.01 0.01 0.01 0.01 0.02 0.02 0.02 0.03 0.03 0.03 0.03 0.02 0.02 0.01 0.00 0.00 0.00 0.00 0.00 0.02 0.02 0.01 0.01 0.00 0.00 0.00 0.00 0.00 0.00 0.00
0.09 0.11 0.11 0.10 0.09 0.07 0.07 0.06 0.05 0.04 0.03 0.03 0.02 0.02 0.01 0.01 0.01 0.02 0.02 0.02 0.02 0.02 0.02 0.02 0.02 0.02 0.02 0.01 0.00 0.00 0.00 0.00 0.01 0.01 0.00 0.00 0.00 0.00 0.00 0.00 0.00 0.01 0.01
0.10 0.10 0.09 0.08 0.07 0.06 0.05 0.05 0.04 0.03 0.04 0.03 0.03 0.02 0.02 0.02 0.01 0.01 0.01 0.01 0.01 0.01 0.01 0.01 0.01 0.02 0.02 0.01 0.00 0.00 0.01 0.01 0.00 0.01 0.01 0.00 0.00 0.00 0.00 0.00 0.01 0.01 0.01
0.06 0.06 0.06 0.06 0.05 0.04 0.04 0.03 0.02 0.02 0.04 0.03 0.02 0.02 0.02 0.02 0.02 0.01 0.00 0.00 0.00 0.00 0.01 0.01 0.01 0.02 0.01 0.00 0.00 0.00 0.00 0.00 0.00 0.00 0.01 0.02 0.01 0.01 0.01 0.01 0.01 0.00 0.00
0.04 0.04 0.04 0.04 0.03 0.03 0.03 0.02 0.01 0.01 0.02 0.03 0.02 0.01 0.01 0.01 0.01 0.02 0.01 0.00 0.00 0.00 0.00 0.00 0.00 0.00 0.00 0.00 0.00 0.00 0.00 0.00 0.00 0.00 0.01 0.02 0.01 0.01 0.00 0.00 0.00 0.00 0.00
MSLP
1009.65 1009.95 1010.01 1009.84 1009.53 1009.15 1008.82 1008.63 1008.65 1008.89 1009.32 1009.86 1010.43 1010.94 1011.33 1011.57 1011.66 1011.65 1011.61 1011.60 1011.69 1011.91 1012.26 1012.71 1013.22 1013.74 1014.24 1014.68 1015.09 1015.47 1015.88 1016.33 1016.86 1017.47 1018.13 1018.80 1019.44 1019.99 1020.41 1020.69 1020.84 1020.89 1020.87
1011.17 1011.49 1011.53 1011.31 1010.91 1010.43 1009.98 1009.66 1009.56 1009.68 1010.00 1010.46 1010.97 1011.43 1011.79 1012.00 1012.06 1012.03 1011.96 1011.92 1011.98 1012.17 1012.48 1012.91 1013.39 1013.89 1014.36 1014.79 1015.17 1015.54 1015.93 1016.37 1016.89 1017.50 1018.16 1018.86 1019.52 1020.12 1020.60 1020.94 1021.16 1021.27 1021.31
1012.50 1012.81 1012.83 1012.57 1012.11 1011.54 1010.98 1010.54 1010.30 1010.30 1010.50 1010.86 1011.30 1011.73 1012.07 1012.29 1012.39 1012.39 1012.36 1012.35 1012.42 1012.61 1012.90 1013.30 1013.74 1014.20 1014.63 1015.02 1015.37 1015.70 1016.06 1016.47 1016.95 1017.53 1018.17 1018.84 1019.51 1020.12 1020.63 1021.03 1021.31 1021.50 1021.62
1013.56 1013.86 1013.87 1013.61 1013.12 1012.50 1011.87 1011.33 1010.97 1010.84 1010.92 1011.17 1011.53 1011.92 1012.27 1012.54 1012.71 1012.80 1012.86 1012.94 1013.06 1013.27 1013.57 1013.93 1014.33 1014.74 1015.11 1015.45 1015.75 1016.04 1016.35 1016.71 1017.15 1017.66 1018.24 1018.86 1019.49 1020.08 1020.59 1021.02 1021.35 1021.59 1021.79
1014.38 1014.67 1014.70 1014.47 1014.01 1013.40 1012.75 1012.15 1011.70 1011.45 1011.41 1011.55 1011.83 1012.18 1012.55 1012.87 1013.14 1013.35 1013.53 1013.71 1013.92 1014.17 1014.47 1014.80 1015.16 1015.50 1015.81 1016.09 1016.34 1016.59 1016.85 1017.16 1017.53 1017.97 1018.47 1019.00 1019.55 1020.07 1020.54 1020.96 1021.30 1021.59 1021.84
1015.02 1015.32 1015.40 1015.24 1014.87 1014.33 1013.72 1013.12 1012.62 1012.29 1012.14 1012.18 1012.38 1012.69 1013.05 1013.42 1013.78 1014.11 1014.41 1014.70 1014.98 1015.27 1015.57 1015.87 1016.17 1016.44 1016.69 1016.91 1017.12 1017.32 1017.54 1017.80 1018.10 1018.46 1018.86 1019.29 1019.72 1020.15 1020.54 1020.90 1021.22 1021.52 1021.79
1015.56 1015.88 1016.05 1016.01 1015.78 1015.38 1014.87 1014.33 1013.84 1013.46 1013.24 1013.18 1013.29 1013.53 1013.87 1014.26 1014.68 1015.10 1015.49 1015.86 1016.20 1016.51 1016.79 1017.05 1017.28 1017.48 1017.66 1017.82 1017.98 1018.15 1018.34 1018.56 1018.81 1019.09 1019.39 1019.70 1020.02 1020.32 1020.60 1020.88 1021.14 1021.41 1021.68
1016.05 1016.43 1016.70 1016.82 1016.76 1016.54 1016.19 1015.77 1015.34 1014.96 1014.68 1014.55 1014.57 1014.73 1015.01 1015.39 1015.82 1016.27 1016.71 1017.11 1017.48 1017.78 1018.03 1018.23 1018.38 1018.51 1018.62 1018.72 1018.84 1018.98 1019.15 1019.34 1019.56 1019.77 1019.99 1020.20 1020.39 1020.57 1020.74 1020.91 1021.10 1021.32 1021.55
1016.55 1016.99 1017.36 1017.64 1017.78 1017.76 1017.61 1017.34 1017.00 1016.66 1016.37 1016.18 1016.11 1016.18 1016.38 1016.70 1017.09 1017.52 1017.95 1018.36 1018.70 1018.97 1019.17 1019.30 1019.37 1019.42 1019.46 1019.51 1019.60 1019.72 1019.88 1020.06 1020.24 1020.42 1020.58 1020.70 1020.79 1020.87 1020.94 1021.02 1021.13 1021.28 1021.47
1017.06 1017.54 1018.00 1018.42 1018.74 1018.92 1018.96 1018.86 1018.66 1018.39 1018.11 1017.88 1017.74 1017.71 1017.81 1018.03 1018.35 1018.72 1019.10 1019.46 1019.76 1019.98 1020.12 1020.17 1020.17 1020.15 1020.13 1020.14 1020.19 1020.30 1020.45 1020.63 1020.81 1020.97 1021.09 1021.17 1021.20 1021.20 1021.19 1021.20 1021.24 1021.34 1021.48
1017.55 1018.04 1018.55 1019.06 1019.52 1019.87 1020.08 1020.15 1020.08 1019.90 1019.67 1019.42 1019.22 1019.11 1019.11 1019.22 1019.44 1019.73 1020.04 1020.34 1020.58 1020.75 1020.83 1020.83 1020.77 1020.70 1020.63 1020.60 1020.63 1020.73 1020.88 1021.06 1021.25 1021.41 1021.52 1021.58 1021.59 1021.55 1021.51 1021.47 1021.48 1021.53 1021.63
1017.98 1018.44 1018.96 1019.51 1020.03 1020.50 1020.85 1021.06 1021.12 1021.04 1020.86 1020.63 1020.40 1020.22 1020.13 1020.15 1020.27 1020.46 1020.71 1020.95 1021.15 1021.28 1021.33 1021.30 1021.22 1021.11 1021.01 1020.96 1020.97 1021.06 1021.20 1021.39 1021.58 1021.76 1021.88 1021.95 1021.96 1021.93 1021.88 1021.84 1021.82 1021.85 1021.92
1018.33 1018.73 1019.20 1019.72 1020.26 1020.78 1021.21 1021.53 1021.70 1021.72 1021.61 1021.42 1021.18 1020.96 1020.81 1020.75 1020.79 1020.92 1021.11 1021.31 1021.50 1021.62 1021.68 1021.65 1021.57 1021.46 1021.36 1021.29 1021.29 1021.36 1021.50 1021.68 1021.88 1022.07 1022.21 1022.31 1022.35 1022.34 1022.31 1022.28 1022.27 1022.28 1022.33
1018.57 1018.89 1019.27 1019.72 1020.23 1020.75 1021.23 1021.62 1021.87 1021.98 1021.94 1021.80 1021.58 1021.35 1021.16 1021.06 1021.05 1021.14 1021.29 1021.49 1021.68 1021.84 1021.93 1021.94 1021.90 1021.81 1021.72 1021.66 1021.65 1021.71 1021.83 1022.00 1022.20 1022.39 1022.55 1022.67 1022.74 1022.77 1022.78 1022.76 1022.76 1022.78 1022.81
1018.74 1018.97 1019.24 1019.60 1020.03 1020.51 1021.00 1021.42 1021.74 1021.92 1021.96 1021.87 1021.69 1021.48 1021.28 1021.16 1021.12 1021.19 1021.35 1021.56 1021.78 1021.99 1022.14 1022.22 1022.23 1022.20 1022.14 1022.09 1022.08 1022.12 1022.22 1022.37 1022.55 1022.74 1022.91 1023.05 1023.15 1023.21 1023.24 1023.25 1023.25 1023.26 1023.27
1018.84 1018.99 1019.17 1019.43 1019.78 1020.21 1020.67 1021.11 1021.47 1021.71 1021.81 1021.78 1021.65 1021.46 1021.28 1021.16 1021.12 1021.19 1021.36 1021.59 1021.86 1022.13 1022.35 1022.50 1022.59 1022.61 1022.59 1022.56 1022.55 1022.58 1022.65 1022.78 1022.93 1023.11 1023.28 1023.42 1023.54 1023.62 1023.66 1023.68 1023.68 1023.67 1023.66
1018.90 1019.01 1019.12 1019.30 1019.59 1019.96 1020.39 1020.83 1021.21 1021.49 1021.64 1021.67 1021.58 1021.43 1021.27 1021.16 1021.13 1021.20 1021.38 1021.64 1021.95 1022.27 1022.56 1022.78 1022.93 1023.01 1023.04 1023.03 1023.02 1023.04 1023.09 1023.19 1023.32 1023.47 1023.63 1023.77 1023.89 1023.97 1024.00 1024.01 1023.99 1023.96 1023.91
1018.96 1019.05 1019.13 1019.27 1019.50 1019.84 1020.24 1020.67 1021.06 1021.37 1021.56 1021.62 1021.58 1021.46 1021.33 1021.22 1021.20 1021.28 1021.46 1021.73 1022.07 1022.42 1022.75 1023.03 1023.23 1023.36 1023.42 1023.44 1023.44 1023.45 1023.48 1023.56 1023.66 1023.80 1023.94 1024.06 1024.17 1024.23 1024.25 1024.24 1024.18 1024.10 1024.01
1019.00 1019.12 1019.21 1019.34 1019.55 1019.86 1020.25 1020.66 1021.06 1021.38 1021.59 1021.69 1021.67 1021.58 1021.47 1021.37 1021.35 1021.42 1021.60 1021.87 1022.20 1022.57 1022.92 1023.23 1023.46 1023.62 1023.71 1023.75 1023.76 1023.77 1023.80 1023.86 1023.94 1024.06 1024.18 1024.29 1024.37 1024.41 1024.41 1024.36 1024.26 1024.13 1023.98
1019.04 1019.20 1019.33 1019.48 1019.70 1020.00 1020.37 1020.78 1021.17 1021.49 1021.72 1021.83 1021.84 1021.77 1021.67 1021.59 1021.56 1021.62 1021.79 1022.04 1022.37 1022.72 1023.07 1023.39 1023.64 1023.82 1023.92 1023.98 1024.00 1024.01 1024.03 1024.09 1024.16 1024.26 1024.36 1024.45 1024.51 1024.53 1024.49 1024.40 1024.26 1024.09 1023.89
1019.06 1019.28 1019.46 1019.65 1019.89 1020.19 1020.56 1020.95 1021.33 1021.65 1021.88 1022.00 1022.03 1021.99 1021.90 1021.83 1021.81 1021.87 1022.02 1022.26 1022.56 1022.90 1023.23 1023.54 1023.79 1023.97 1024.09 1024.15 1024.18 1024.20 1024.22 1024.26 1024.33 1024.41 1024.49 1024.56 1024.59 1024.58 1024.52 1024.39 1024.22 1024.00 1023.76
1019.05 1019.34 1019.57 1019.80 1020.07 1020.38 1020.74 1021.12 1021.49 1021.79 1022.02 1022.16 1022.20 1022.18 1022.13 1022.08 1022.08 1022.14 1022.29 1022.51 1022.80 1023.12 1023.44 1023.73 1023.97 1024.15 1024.27 1024.34 1024.37 1024.38 1024.40 1024.42 1024.47 1024.53 1024.58 1024.63 1024.64 1024.60 1024.51 1024.36 1024.16 1023.92 1023.65
1019.02 1019.35 1019.64 1019.91 1020.20 1020.53 1020.88 1021.25 1021.59 1021.89 1022.11 1022.26 1022.33 1022.34 1022.33 1022.31 1022.34 1022.43 1022.58 1022.81 1023.09 1023.40 1023.70 1023.99 1024.22 1024.39 1024.51 1024.57 1024.59 1024.59 1024.58 1024.59 1024.60 1024.63 1024.65 1024.66 1024.64 1024.58 1024.47 1024.31 1024.10 1023.85 1023.57
1018.97 1019.34 1019.67 1019.97 1020.29 1020.62 1020.96 1021.31 1021.64 1021.93 1022.15 1022.31 1022.41 1022.46 1022.49 1022.53 1022.60 1022.72 1022.90 1023.14 1023.43 1023.73 1024.04 1024.31 1024.54 1024.70 1024.80 1024.84 1024.85 1024.82 1024.78 1024.75 1024.72 1024.70 1024.67 1024.65 1024.60 1024.52 1024.40 1024.23 1024.02 1023.78 1023.51
1018.91 1019.31 1019.67 1020.00 1020.33 1020.66 1021.00 1021.34 1021.65 1021.93 1022.16 1022.33 1022.46 1022.55 1022.63 1022.71 1022.83 1023.00 1023.22 1023.48 1023.78 1024.09 1024.39 1024.66 1024.88 1025.03 1025.11 1025.14 1025.11 1025.04 1024.96 1024.87 1024.79 1024.71 1024.64 1024.57 1024.49 1024.40 1024.27 1024.12 1023.93 1023.72 1023.47
1018.86 1019.28 1019.66 1020.01 1020.35 1020.69 1021.02 1021.35 1021.65 1021.92 1022.15 1022.34 1022.49 1022.62 1022.74 1022.88 1023.04 1023.24 1023.49 1023.78 1024.09 1024.41 1024.71 1024.97 1025.18 1025.32 1025.38 1025.38 1025.31 1025.21 1025.07 1024.93 1024.79 1024.65 1024.54 1024.43 1024.32 1024.22 1024.11 1023.98 1023.83 1023.65 1023.45
Thickness
5713 5713 5713 5714 5716 5717 5718 5720 5720 5721 5721 5719 5717 5713 5709 5708 5707 5706 5704 5704 5703 5702 5700 5701 5701 5701 5701 5701 5701 5700 5699 5697 5696 5693 5690 5689 5688 5687 5685 5684 5682 5679 5677
5702 5701 5701 5701 5703 5704 5706 5708 5710 5711 5713 5712 5711 5708 5705 5701 5699 5698 5697 5696 5695 5695 5694 5694 5693 5693 5693 5693 5693 5693 5692 5690 5689 5687 5682 5676 5673 5674 5672 5672 5671 5668 5666
5689 5688 5688 5688 5689 5690 5693 5696 5698 5701 5702 5702 5702 5700 5697 5693 5690 5687 5685 5685 5686 5687 5686 5686 5685 5685 5685 5684 5684 5685 5685 5682 5680 5680 5678 5672 5667 5663 5660 5659 5659 5657 5656
5679 5677 5676 5675 5676 5678 5681 5683 5686 5689 5691 5693 5693 5692 5688 5683 5680 5676 5675 5674 5675 5676 5676 5676 5676 5676 5675 5674 5675 5676 5676 5675 5672 5670 5670 5668 5665 5660 5651 5648 5648 5647 5645
5667 5664 5663 5663 5665 5667 5669 5671 5674 5676 5679 5681 5682 5681 5677 5674 5670 5667 5665 5663 5663 5663 5663 5664 5665 5665 5664 5664 5664 5664 5665 5664 5662 5661 5660 5658 5657 5655 5649 5641 5638 5636 5635
5656 5653 5652 5652 5652 5655 5657 5659 5661 5663 5665 5668 5668 5667 5665 5662 5659 5656 5653 5651 5651 5651 5651 5652 5652 5653 5653 5653 5653 5652 5652 5650 5650 5649 5649 5647 5645 5642 5640 5636 5631 5628 5625
5645 5642 5640 5640 5640 5642 5644 5647 5648 5650 5652 5653 5654 5654 5652 5650 5647 5644 5642 5641 5640 5639 5638 5639 5640 5640 5641 5641 5642 5640 5639 5638 5637 5636 5636 5636 5634 5633 5632 5628 5625 5621 5617
5634 5631 5629 5628 5628 5630 5632 5634 5635 5636 5638 5640 5640 5639 5639 5637 5634 5632 5631 5630 5629 5627 5627 5628 5628 5628 5629 5630 5630 5629 5628 5627 5626 5625 5624 5623 5622 5622 5620 5618 5615 5611 5608
5624 5621 5618 5618 5617 5618 5619 5621 5623 5624 5625 5626 5626 5625 5625 5624 5622 5621 5621 5619 5618 5617 5616 5617 5617 5617 5618 5618 5618 5617 5616 5616 5615 5613 5612 5611 5610 5610 5609 5608 5606 5601 5597
5616 5612 5609 5608 5608 5607 5608 5609 5611 5612 5612 5613 5613 5612 5612 5611 5610 5609 5607 5607 5606 5606 5606 5605 5605 5606 5606 5606 5606 5605 5605 5604 5602 5600 5599 5598 5597 5597 5597 5596 5595 5591 5587
5607 5604 5602 5600 5599 5598 5598 5598 5599 5599 5599 5599 5599 5599 5598 5597 5597 5596 5595 5595 5595 5595 5595 5594 5595 5595 5595 5595 5595 5594 5594 5592 5590 5588 5587 5585 5584 5584 5584 5583 5581 5578 5575
5600 5597 5595 5593 5591 5589 5588 5587 5587 5587 5587 5586 5586 5586 5585 5585 5585 5583 5584 5584 5584 5584 5584 5584 5584 5585 5584 5584 5584 5583 5582 5580 5578 5576 5575 5573 5573 5571 5569 5569 5568 5565 5563
5594 5590 5588 5585 5583 5580 5579 5577 5577 5576 5576 5576 5575 5574 5573 5573 5573 5573 5573 5573 5573 5573 5574 5574 5573 5573 5574 5574 5573 5572 5571 5569 5567 5565 5563 5561 5559 5557 5556 5556 5554 5553 5552
5588 5584 5580 5577 5574 5572 5570 5568 5567 5567 5567 5566 5565 5564 5563 5562 5563 5563 5562 5563 5563 5563 5563 5564 5563 5562 5561 5561 5561 5561 5559 5558 5556 5553 5551 5549 5547 5544 5543 5544 5541 5540 5539
5581 5577 5573 5570 5567 5564 5562 5560 5559 5559 5558 5558 5556 5554 5553 5553 5553 5553 5553 5553 5553 5552 5552 5552 5552 5550 5548 5546 5546 5548 5548 5547 5545 5543 5541 5539 5536 5533 5532 5531 5528 5528 5526
5575 5571 5566 5563 5560 5557 5555 5553 5551 5550 5550 5550 5548 5547 5546 5545 5544 5544 5543 5542 5542 5542 5542 5541 5540 5539 5536 5534 5535 5535 5536 5536 5534 5533 5531 5529 5527 5524 5523 5521 5520 5518 5517
5570 5565 5561 5557 5554 5551 5549 5546 5544 5543 5542 5542 5541 5540 5539 5538 5538 5536 5534 5533 5532 5532 5531 5530 5529 5527 5524 5524 5524 5524 5524 5526 5524 5523 5522 5522 5519 5516 5514 5514 5513 5512 5510
5565 5559 5554 5550 5547 5544 5542 5540 5539 5537 5536 5535 5534 5533 5532 5531 5529 5527 5526 5525 5524 5523 5522 5522 5520 5518 5515 5515 5515 5515 5517 5518 5517 5515 5513 5511 5508 5505 5504 5505 5506 5507 5506
5559 5553 5548 5544 5540 5538 5536 5535 5534 5532 5531 5530 5529 5527 5526 5524 5522 5520 5519 5518 5517 5517 5515 5515 5513 5511 5507 5506 5506 5507 5510 5511 5510 5507 5504 5502 5499 5496 5496 5498 5498 5499 5498
5552 5546 5542 5538 5535 5532 5531 5530 5528 5526 5524 5523 5522 5520 5519 5518 5516 5514 5513 5512 5512 5511 5510 5508 5506 5504 5501 5499 5500 5500 5504 5503 5502 5499 5496 5493 5491 5490 5489 5489 5490 5490 5489
5547 5542 5537 5533 5530 5528 5526 5524 5522 5520 5519 5518 5516 5515 5513 5512 5510 5509 5508 5507 5506 5506 5504 5502 5500 5498 5495 5493 5493 5493 5494 5494 5494 5493 5490 5486 5485 5484 5483 5483 5483 5482 5482
5542 5538 5533 5528 5526 5523 5521 5518 5516 5515 5514 5513 5511 5510 5508 5508 5506 5504 5503 5502 5501 5500 5499 5497 5495 5492 5490 5488 5487 5487 5486 5485 5486 5485 5484 5482 5480 5479 5479 5479 5480 5480 5480
5539 5533 5529 5524 5521 5519 5516 5513 5511 5511 5509 5507 5505 5504 5503 5502 5501 5500 5499 5498 5497 5497 5496 5493 5491 5488 5486 5484 5482 5482 5481 5480 5479 5479 5478 5477 5477 5476 5477 5477 5476 5476 5477
5535 5530 5526 5522 5518 5515 5513 5510 5508 5506 5504 5502 5500 5499 5498 5497 5496 5496 5495 5494 5493 5492 5492 5490 5487 5485 5482 5479 5477 5478 5478 5476 5475 5474 5475 5475 5475 5474 5474 5474 5475 5475 5475
5533 5528 5525 5520 5516 5513 5511 5508 5505 5503 5501 5499 5498 5497 5495 5494 5492 5490 5486 5486 5482 5482 5483 5483 5482 5480 5476 5471 5469 5469 5471 5469 5468 5468 5472 5474 5474 5474 5474 5474 5474 5474 5473
5532 5528 5524 5520 5516 5513 5509 5507 5504 5502 5500 5497 5497 5496 5494 5492 5490 5487 5483 5478 5478 5476 5476 5475 5474 5472 5470 5469 5468 5467 5467 5466 5465 5466 5469 5471 5471 5470 5470 5470 5470 5470 5469